Weather in Poltso

Russia / Republic of Mordovia     54°12′01″N   43°46′42″E
temp.,
°C
wind,
m/s
gust,
m/s
humid.,
%
clouds,
%
prec.,
mm/h
press.,
hPa
HPBL,
m
4 march, thu
thu400:00−3wsw6129497 0.1 1009462
03:00−2wsw6119399 0.2 1007717
06:00−2wsw71292100 0.1 1004813
09:00−1wsw91595100 0.4 1001894
12:00+1wsw91591100 0.6 1000973
15:000w81492100 0.7 9991024
18:00−1wsw61196100 0.5 1000607
21:00−1wnw3797100 2.1 1000367
5 march, fri
fri500:00−4nw1298100 1.1 100031
03:00−4nw2298100 1.9 100173
06:00−6n2397100 0.5 100298
09:00−7nnw3594100 0.7 1005210
12:00−5nw249131 0.0 1007282
15:00−3w248739 0.0 1009498
18:00−7wsw349180 0.0 101058
21:00−8w4109459 0.0 1012206
6 march, sat
sat600:00−11w459522 0.0 101397
03:00−12wnw349313 0.0 101543
06:00−14nw22967 0.0 101620
09:00−12n12923 0.0 101779
12:00−9nne11770 0.0 1017229
15:00−8nnw11780 0.0 1016222
18:00−13sw11780 0.0 101521
21:00−14ssw228216 0.0 101620
7 march, sun
sun700:00−12ssw239696 0.1 101557
03:00−11wsw359698 0.3 1015114
06:00−14wsw349787 0.1 101454
09:00−11sw5109153 0.1 1012307
12:00−7sw8148468 0.0 1008731
15:00−5ssw9168284 0.1 10041097
18:00−5sw91693100 0.8 10001172
21:00−4sw91594100 2.2 9991034
8 march, mon
mon800:00−9w5118089 0.4 1000269
03:00−11wsw5108345 0.4 1002196
06:00−12sw513760 0.0 1001246
09:00−9ssw612750 0.0 999360
12:00−4ssw6108671 0.1 996998
15:00−6w9147485 1.3 9971572
18:00−9w7148969 0.1 1001645
21:00−10wnw8168679 0.1 1006687